STARLINK-1295

decayed
NORAD ID: 45373 Int'l Des: 2020-019 Owner: SPXS Country: US Constellation: starlink
LEOCIRCULAR
Group

About STARLINK-1295

Description loading...

Altitude History

Altitude vs Time

uPlot chart will show altitude changes over time

Two-Line Element Set

1 45373U 20019P 25109.61359108 .07801254 12440-4 50121-3 0 9998
2 45373 53.0336 133.4396 0004960 307.5897 147.2283 16.40992213281556
Epoch: Apr 19, 2025 • Age: 3575 hours

Current Status

Position data unavailable
Launch Date Mar 18, 2020
Age 5.4 years
Decay Date Apr 19, 2025
Type internet

Technical Details

Classification Payload
Mass 260.00 kg
Dry Mass 248.00 kg
Total Mass 260.00 kg
Length 0.20 m
Diameter 2.80 m
Span 9.00 m
Shape Box + pan
Manufacturer SPXS
Bus Type Starlink
Phase Status Unknown Transfer Status
Owner/State SPXS/US

Large Constellations

Loading constellations...